^^
New Milford Station Historical Data
 
Daily Summary for April 23, 2024 Units:  English    Metric   Both
Daily Weekly Monthly Yearly
  Current: High: Low: Average:
Temperature: 31.3 °F 38 °F 31.3 °F 34.1 °F
Dew Point: 29 °F 30.3 °F 28.7 °F 29.4 °F
Humidity: 91% 91% 72% 83%
Wind Speed: 0mph 0mph 0mph 0mph
Wind Gust: 0mph 0mph - -
WindCalm - - North
Pressure: 30.36 in 30.36 in 30.30 in -
Precipitation: 0.00 in      
 
 
Tabular Data for April 23, 2024
Time Temperature Dew Point Pressure Wind Wind Speed Wind Gust Humidity Rainfall Rate (Hourly) solar
00:00 38 °F 29.7 °F 30.30 in Calm     72% 0.00 in W/m2
00:05 38 °F 29.7 °F 30.30 in Calm     72% 0.00 in W/m2
00:10 37.8 °F 29.9 °F 30.31 in Calm     73% 0.00 in W/m2
00:15 37.7 °F 30.2 °F 30.31 in Calm     74% 0.00 in W/m2
00:20 37.5 °F 29.9 °F 30.31 in Calm     74% 0.00 in W/m2
00:25 37.3 °F 29.5 °F 30.31 in Calm     73% 0.00 in W/m2
00:30 37.2 °F 29.7 °F 30.31 in Calm     74% 0.00 in W/m2
00:35 37.1 °F 29.6 °F 30.31 in Calm     74% 0.00 in W/m2
00:40 37.1 °F 29.9 °F 30.31 in Calm     75% 0.00 in W/m2
00:45 36.9 °F 30.1 °F 30.31 in Calm     76% 0.00 in W/m2
00:50 36.9 °F 30.1 °F 30.31 in Calm     76% 0.00 in W/m2
00:55 36.8 °F 30 °F 30.31 in Calm     76% 0.00 in W/m2
01:00 36.8 °F 30.3 °F 30.31 in Calm     77% 0.00 in W/m2
01:05 36.6 °F 30.1 °F 30.31 in Calm     77% 0.00 in W/m2
01:10 36.5 °F 29.9 °F 30.31 in Calm     77% 0.00 in W/m2
01:15 36.3 °F 29.8 °F 30.31 in Calm     77% 0.00 in W/m2
01:20 36.2 °F 30 °F 30.31 in Calm     78% 0.00 in W/m2
01:25 36.1 °F 29.9 °F 30.31 in Calm     78% 0.00 in W/m2
01:30 36 °F 29.8 °F 30.30 in Calm     78% 0.00 in W/m2
01:35 35.9 °F 29.7 °F 30.30 in Calm     78% 0.00 in W/m2
01:40 35.8 °F 29.9 °F 30.30 in Calm     79% 0.00 in W/m2
01:45 35.6 °F 29.7 °F 30.30 in Calm     79% 0.00 in W/m2
01:50 35.6 °F 29.4 °F 30.30 in Calm     78% 0.00 in W/m2
01:55 35.3 °F 29.8 °F 30.31 in Calm     80% 0.00 in W/m2
02:00 35.2 °F 29.7 °F 30.31 in Calm     80% 0.00 in W/m2
02:05 35.1 °F 29.6 °F 30.31 in Calm     80% 0.00 in W/m2
02:10 35 °F 29.8 °F 30.31 in Calm     81% 0.00 in W/m2
02:15 34.9 °F 30 °F 30.31 in Calm     82% 0.00 in W/m2
02:20 34.8 °F 29.6 °F 30.31 in Calm     81% 0.00 in W/m2
02:25 34.6 °F 29.4 °F 30.31 in Calm     81% 0.00 in W/m2
02:30 34.5 °F 29.6 °F 30.31 in Calm     82% 0.00 in W/m2
02:35 34.4 °F 29.2 °F 30.31 in Calm     81% 0.00 in W/m2
02:40 34.3 °F 29.4 °F 30.31 in Calm     82% 0.00 in W/m2
02:45 34.2 °F 29.3 °F 30.31 in Calm     82% 0.00 in W/m2
02:50 34.1 °F 29.2 °F 30.31 in Calm     82% 0.00 in W/m2
02:55 34 °F 29.4 °F 30.32 in Calm     83% 0.00 in W/m2
03:00 34 °F 29.4 °F 30.31 in Calm     83% 0.00 in W/m2
03:05 33.9 °F 29.3 °F 30.32 in Calm     83% 0.00 in W/m2
03:10 33.8 °F 29.2 °F 30.32 in Calm     83% 0.00 in W/m2
03:15 33.7 °F 29.4 °F 30.32 in Calm     84% 0.00 in W/m2
03:20 33.6 °F 29.3 °F 30.32 in Calm     84% 0.00 in W/m2
03:25 33.5 °F 29.5 °F 30.32 in Calm     85% 0.00 in W/m2
03:30 33.5 °F 29.2 °F 30.32 in Calm     84% 0.00 in W/m2
03:35 33.4 °F 29.4 °F 30.32 in Calm     85% 0.00 in W/m2
03:40 33.3 °F 29.2 °F 30.32 in Calm     85% 0.00 in W/m2
03:45 33.1 °F 29.1 °F 30.32 in Calm     85% 0.00 in W/m2
03:50 33 °F 29 °F 30.32 in Calm     85% 0.00 in W/m2
03:55 32.9 °F 28.9 °F 30.32 in Calm     85% 0.00 in W/m2
04:00 32.8 °F 29.1 °F 30.32 in Calm     86% 0.00 in W/m2
04:05 32.6 °F 28.9 °F 30.32 in Calm     86% 0.00 in W/m2
04:10 32.5 °F 29.1 °F 30.32 in Calm     87% 0.00 in W/m2
04:15 32.5 °F 29.4 °F 30.32 in Calm     88% 0.00 in W/m2
04:20 32.4 °F 29 °F 30.32 in Calm     87% 0.00 in W/m2
04:25 32.3 °F 28.9 °F 30.32 in Calm     87% 0.00 in W/m2
04:30 32.2 °F 29.1 °F 30.33 in Calm     88% 0.00 in W/m2
04:35 32.2 °F 29.3 °F 30.33 in Calm     89% 0.00 in W/m2
04:40 32.3 °F 29.1 °F 30.32 in Calm     88% 0.00 in W/m2
04:45 32.1 °F 29 °F 30.33 in Calm     88% 0.00 in W/m2
04:50 32 °F 28.9 °F 30.33 in Calm     88% 0.00 in W/m2
04:55 31.9 °F 28.8 °F 30.33 in Calm     88% 0.00 in W/m2
05:00 31.8 °F 29.2 °F 30.34 in Calm     90% 0.00 in W/m2
05:05 31.9 °F 29.3 °F 30.34 in Calm     90% 0.00 in W/m2
05:10 31.8 °F 28.9 °F 30.34 in Calm     89% 0.00 in W/m2
05:15 31.7 °F 29.1 °F 30.34 in Calm     90% 0.00 in W/m2
05:20 31.8 °F 29.2 °F 30.34 in Calm     90% 0.00 in W/m2
05:25 31.7 °F 29.1 °F 30.34 in Calm     90% 0.00 in W/m2
05:30 31.7 °F 28.8 °F 30.34 in Calm     89% 0.00 in W/m2
05:35 31.6 °F 29 °F 30.34 in Calm     90% 0.00 in W/m2
05:40 31.5 °F 28.7 °F 30.34 in Calm     89% 0.00 in W/m2
05:45 31.5 °F 28.9 °F 30.34 in Calm     90% 0.00 in W/m2
05:50 31.4 °F 29.1 °F 30.34 in Calm     91% 0.00 in W/m2
05:55 31.4 °F 29.1 °F 30.35 in Calm     91% 0.00 in W/m2
06:00 31.4 °F 29.1 °F 30.35 in Calm     91% 0.00 in W/m2
06:05 31.4 °F 29.1 °F 30.35 in Calm     91% 0.00 in W/m2
06:10 31.3 °F 29 °F 30.36 in Calm     91% 0.00 in W/m2
06:15 31.3 °F 29 °F 30.36 in Calm     91% 0.00 in W/m2
Compliments of Weather Underground - 1.25 mb